This is the latest recevied weather packets stored in our database for station/object KI7JYE. If no packets are shown the sender has not sent any weather packets the latest 10 day(s).
| Time | Temp. | Humidity | Pressure | Rain* | Wind** | Luminosity | Snow |
|---|---|---|---|---|---|---|---|
| 1777861621 | 30.56° C | 29% | 1004.9 hPa | 0 mm | - | 32 W/m² | - |
| 1777861316 | 30.56° C | 30% | 1005.1 hPa | 0 mm | - | 37 W/m² | - |
| 1777861015 | 31.11° C | 27% | 1005.3 hPa | 0 mm | - | 40 W/m² | - |
| 1777860711 | 31.67° C | 25% | 1005 hPa | 0 mm | - | 44 W/m² | - |
| 1777860408 | 31.67° C | 25% | 1005.1 hPa | 0 mm | - | 47 W/m² | - |
| 1777860104 | 31.67° C | 25% | 1005.1 hPa | 0 mm | - | 49 W/m² | - |
| 1777859801 | 31.67° C | 26% | 1005.3 hPa | 0 mm | - | 51 W/m² | - |
| 1777859497 | 31.67° C | 25% | 1005.3 hPa | 0 mm | - | 55 W/m² | - |
| 1777859193 | 31.67° C | 26% | 1005.2 hPa | 0 mm | - | 79 W/m² | - |
| 1777858890 | 31.67° C | 27% | 1005.3 hPa | 0 mm | - | 96 W/m² | - |
| 1777858588 | 31.67° C | 26% | 1005.3 hPa | 0 mm | - | 112 W/m² | - |
| 1777858285 | 31.67° C | 26% | 1005.1 hPa | 0 mm | - | 121 W/m² | - |
| 1777857982 | 31.67° C | 27% | 1005.6 hPa | 0 mm | - | 131 W/m² | - |
| 1777857680 | 32.22° C | 24% | 1005.3 hPa | 0 mm | - | 147 W/m² | - |
| 1777857376 | 32.22° C | 25% | 1005.5 hPa | 0 mm | - | 160 W/m² | - |
| 1777857073 | 32.22° C | 25% | 1005.4 hPa | 0 mm | - | 165 W/m² | - |
| 1777856768 | 32.22° C | 26% | 1005.4 hPa | 0 mm | - | 186 W/m² | - |
| 1777856465 | 32.78° C | 26% | 1005.5 hPa | 0 mm | - | 200 W/m² | - |
| 1777856161 | 32.22° C | 25% | 1005.6 hPa | 0 mm | - | 219 W/m² | - |
| 1777855859 | 32.78° C | 23% | 1005.7 hPa | 0 mm | - | 231 W/m² | - |
| 1777855556 | 32.78° C | 25% | 1005.6 hPa | 0 mm | - | 235 W/m² | - |
| 1777855253 | 32.78° C | 25% | 1005.8 hPa | 0 mm | - | 242 W/m² | - |
| 1777854949 | 32.78° C | 25% | 1005.8 hPa | 0 mm | - | 258 W/m² | - |
| 1777854646 | 32.78° C | 23% | 1005.8 hPa | 0 mm | - | 283 W/m² | - |
| 1777854343 | 32.78° C | 23% | 1005.9 hPa | 0 mm | - | 304 W/m² | - |
* Rain latest hour (hover to see other rain measurements)
** Current wind speed in m/s (hover to see current wind gust speed)